Location: Broekland
(52.3610°N, 6.2005°E)
Time: 19:33:46
(UTC+00:00)

Cosmos 836 Rocket - Pass Details

Date: 19 May 2025
Orbit: 754 x 773 km, 74.1° (Epoch: 20 June)

Event Time Altitude Azimuth Distance (km) Brightness Sun altitude
Exits shadow 21:27:44 - 201° (SSW) 2,810 7.1 -12.8°
Reaches altitude 10° 21:29:05 10° 201° (SSW) 2,282 6.6 -12.9°
Maximum altitude 21:34:16 85° 113° (ESE) 766 4.4 -13.3°
Drops below altitude 10° 21:39:28 10° 26° (NNE) 2,292 7.5 -13.6°
Sets 21:41:50 0° 26° (NNE) 3,221 8.3 -13.8°
